Reno - Stead, NV

1:08 AM PDT on September 26, 2017 (GMT -0700)
Reno - Stead

Weather History for KRTS - March, 2014

Change the Weather History Date:

Wednesday, March 12, 2014

  Actual Average (KRNO) Record (KRNO)
Temperature  
Mean Temperature 38 °F -  
Max Temperature 53 °F 55 °F 80 °F (2007)
Min Temperature 24 °F 27 °F 7 °F (1922)
Degree Days  
Heating Degree Days 26    
Moisture  
Dew Point 15 °F    
Average Humidity 41    
Maximum Humidity 69    
Minimum Humidity 18    
Precipitation  
Precipitation 0.00 in - - ()
Sea Level Pressure  
Sea Level Pressure 30.26 in    
Wind  
Wind Speed 9 mph (East)    
Max Wind Speed 22 mph    
Max Gust Speed 25 mph    
Visibility 10 miles    
Events      
Averages and records for this station are not official NWS values.
T = Trace of Precipitation, MM = Missing Value Source: NWS Daily Summary

Daily Weather History Graph

Daily Weather History Graph

Search for Another Location

Airport or City:

Trip Planner

Search our weather history database for the weather conditions in past years. The results will help you decide how hot, cold, wet, or windy it might be!

Date:

Astronomy

Mar. 12, 2014 Rise Set
Actual Time 7:15 AM PDT 7:03 PM PDT
Civil Twilight 6:48 AM PDT 7:30 PM PDT
Nautical Twilight 6:17 AM PDT 8:01 PM PDT
Astronomical Twilight 5:45 AM PDT 8:33 PM PDT
Moon 3:39 PM PDT (3/12) 4:49 AM PDT (3/12)
Length of Visible Light 12h 41m
Length of Day
11h 47m
Waxing Gibbous, 86% of the Moon is Illuminated
Mar 12
Waxing Gibbous
Mar 16
Full
Mar 23
Last Quarter
Mar 30
New
Apr 7
First Quarter

Hourly Weather History & Observations

Time (PDT) Temp. Windchill Dew Point Humidity Pressure Visibility Wind Dir Wind Speed Gust Speed Precip Events Conditions
12:15 AM 33.8 °F 23.5 °F 15.8 °F 48% 30.30 in 10.0 mi NE 16.1 mph 19.6 mph N/A   Clear
12:35 AM 35.6 °F 26.2 °F 15.8 °F 44% 30.30 in 10.0 mi NE 15.0 mph - N/A   Clear
12:55 AM 35.6 °F 28.6 °F 15.8 °F 44% 30.31 in 10.0 mi East 9.2 mph - N/A   Clear
1:15 AM 32.0 °F 24.2 °F 15.8 °F 51% 30.31 in 10.0 mi SSE 9.2 mph - N/A   Clear
1:35 AM 32.0 °F 28.7 °F 15.8 °F 51% 30.32 in 10.0 mi ESE 3.5 mph - N/A   Clear
1:55 AM 33.8 °F 29.6 °F 15.8 °F 48% 30.32 in 10.0 mi SE 4.6 mph - N/A   Clear
2:15 AM 33.8 °F 29.6 °F 15.8 °F 48% 30.31 in 10.0 mi SE 4.6 mph - N/A   Clear
2:35 AM 32.0 °F - 15.8 °F 51% 30.31 in 10.0 mi Calm Calm - N/A   Clear
2:55 AM 32.0 °F 28.7 °F 15.8 °F 51% 30.31 in 10.0 mi NW 3.5 mph - N/A   Clear
3:15 AM 30.2 °F 24.3 °F 15.8 °F 55% 30.30 in 10.0 mi West 5.8 mph - N/A   Clear
3:35 AM 32.0 °F - 15.8 °F 51% 30.30 in 10.0 mi Calm Calm - N/A   Clear
3:55 AM 32.0 °F 28.7 °F 15.8 °F 51% 30.30 in 10.0 mi NE 3.5 mph - N/A   Clear
4:15 AM 33.8 °F 29.6 °F 15.8 °F 48% 30.30 in 10.0 mi East 4.6 mph - N/A   Clear
4:35 AM 33.8 °F - 15.8 °F 48% 30.30 in 10.0 mi Calm Calm - N/A   Clear
4:55 AM 32.0 °F 24.8 °F 15.8 °F 51% 30.30 in 10.0 mi ESE 8.1 mph - N/A   Clear
5:15 AM 30.2 °F 22.6 °F 15.8 °F 55% 30.30 in 10.0 mi East 8.1 mph - N/A   Clear
5:35 AM 28.4 °F 24.6 °F 15.8 °F 59% 30.31 in 10.0 mi ENE 3.5 mph - N/A   Clear
5:55 AM 28.4 °F - 15.8 °F 59% 30.31 in 10.0 mi Calm Calm - N/A   Clear
6:15 AM 28.4 °F 24.6 °F 15.8 °F 59% 30.31 in 10.0 mi North 3.5 mph - N/A   Clear
6:35 AM 26.6 °F 20.0 °F 15.8 °F 64% 30.31 in 10.0 mi North 5.8 mph - N/A   Clear
6:55 AM 26.6 °F 22.6 °F 15.8 °F 64% 30.32 in 10.0 mi North 3.5 mph - N/A   Clear
7:15 AM 24.8 °F - 15.8 °F 69% 30.32 in 10.0 mi Calm Calm - N/A   Clear
7:35 AM 24.8 °F - 15.8 °F 69% 30.32 in 10.0 mi Calm Calm - N/A   Clear
7:55 AM 24.8 °F 19.1 °F 15.8 °F 69% 30.33 in 10.0 mi North 4.6 mph - N/A   Clear
8:15 AM 28.4 °F - 17.6 °F 64% 30.32 in 10.0 mi Calm Calm - N/A   Clear
8:35 AM 30.2 °F - 17.6 °F 60% 30.33 in 10.0 mi Calm Calm - N/A   Clear
8:55 AM 32.0 °F - 17.6 °F 55% 30.33 in 10.0 mi Calm Calm - N/A   Clear
9:15 AM 37.4 °F 30.8 °F 19.4 °F 48% 30.33 in 10.0 mi ESE 9.2 mph - N/A   Clear
9:35 AM 39.2 °F 32.0 °F 17.6 °F 42% 30.33 in 10.0 mi SE 11.5 mph - N/A   Clear
9:55 AM 39.2 °F 31.6 °F 17.6 °F 42% 30.33 in 10.0 mi SE 12.7 mph 20.7 mph N/A   Clear
10:15 AM 41.0 °F 32.8 °F 19.4 °F 42% 30.33 in 10.0 mi SSE 16.1 mph 19.6 mph N/A   Clear
10:35 AM 41.0 °F 33.9 °F 17.6 °F 39% 30.32 in 10.0 mi ESE 12.7 mph 17.3 mph N/A   Clear
10:55 AM 44.6 °F 38.1 °F 17.6 °F 34% 30.32 in 10.0 mi SE 13.8 mph 21.9 mph N/A   Clear
11:15 AM 44.6 °F 36.1 °F 17.6 °F 34% 30.31 in 10.0 mi SSE 21.9 mph 25.3 mph N/A   Clear
11:35 AM 44.6 °F 36.6 °F 17.6 °F 34% 30.31 in 10.0 mi SE 19.6 mph 25.3 mph N/A   Clear
11:55 AM 44.6 °F 37.4 °F 17.6 °F 34% 30.30 in 10.0 mi SSE 16.1 mph 21.9 mph N/A   Clear
12:15 PM 46.4 °F 40.1 °F 17.6 °F 32% 30.30 in 10.0 mi SSE 15.0 mph 19.6 mph N/A   Clear
12:35 PM 46.4 °F 40.7 °F 17.6 °F 32% 30.29 in 10.0 mi ESE 12.7 mph 20.7 mph N/A   Clear
12:55 PM 46.4 °F 41.5 °F 15.8 °F 29% 30.29 in 10.0 mi East 10.4 mph 18.4 mph N/A   Clear
1:15 PM 48.2 °F - 15.8 °F 27% 30.28 in 10.0 mi East 11.5 mph 16.1 mph N/A   Clear
1:35 PM 48.2 °F - 15.8 °F 27% 30.27 in 10.0 mi SE 11.5 mph - N/A   Clear
1:55 PM 48.2 °F - 15.8 °F 27% 30.25 in 10.0 mi SE 16.1 mph 20.7 mph N/A   Clear
2:15 PM 50.0 °F - 15.8 °F 26% 30.24 in 10.0 mi SE 17.3 mph 24.2 mph N/A   Clear
2:35 PM 50.0 °F - 15.8 °F 26% 30.23 in 10.0 mi SE 16.1 mph 24.2 mph N/A   Clear
2:55 PM 50.0 °F - 14.0 °F 24% 30.23 in 10.0 mi SSE 13.8 mph 21.9 mph N/A   Clear
3:15 PM 50.0 °F - 14.0 °F 24% 30.22 in 10.0 mi SE 12.7 mph 17.3 mph N/A   Clear
3:35 PM 51.8 °F - 12.2 °F 21% 30.22 in 10.0 mi ESE 10.4 mph 23.0 mph N/A   Clear
3:55 PM 51.8 °F - 10.4 °F 19% 30.20 in 10.0 mi SSE 10.4 mph - N/A   Clear
4:15 PM 53.6 °F - 10.4 °F 18% 30.20 in 10.0 mi SE 13.8 mph 18.4 mph N/A   Clear
4:35 PM 51.8 °F - 8.6 °F 18% 30.20 in 10.0 mi SE 6.9 mph - N/A   Clear
4:55 PM 51.8 °F - 8.6 °F 18% 30.19 in 10.0 mi ESE 12.7 mph - N/A   Clear
5:15 PM 51.8 °F - 10.4 °F 19% 30.18 in 10.0 mi ENE 10.4 mph 19.6 mph N/A   Clear
5:35 PM 51.8 °F - 8.6 °F 18% 30.18 in 10.0 mi ENE 13.8 mph - N/A   Clear
5:55 PM 50.0 °F - 8.6 °F 19% 30.18 in 10.0 mi ENE 12.7 mph - N/A   Clear
6:15 PM 50.0 °F - 8.6 °F 19% 30.18 in 10.0 mi ENE 8.1 mph - N/A   Clear
6:35 PM 50.0 °F - 10.4 °F 20% 30.18 in 10.0 mi NE 9.2 mph - N/A   Clear
6:55 PM 48.2 °F - 10.4 °F 22% 30.18 in 10.0 mi NE 8.1 mph - N/A   Clear
7:15 PM 44.6 °F 40.2 °F 10.4 °F 25% 30.17 in 10.0 mi NE 8.1 mph - N/A   Clear
7:35 PM 42.8 °F 38.0 °F 10.4 °F 27% 30.17 in 10.0 mi NNE 8.1 mph - N/A   Clear
7:55 PM 41.0 °F 39.0 °F 10.4 °F 29% 30.17 in 10.0 mi ENE 3.5 mph - N/A   Clear
8:15 PM 39.2 °F 35.0 °F 12.2 °F 33% 30.17 in 10.0 mi SE 5.8 mph - N/A   Clear
8:35 PM 37.4 °F - 10.4 °F 33% 30.18 in 10.0 mi Calm Calm - N/A   Clear
8:55 PM 35.6 °F 29.9 °F 10.4 °F 35% 30.18 in 10.0 mi NNW 6.9 mph - N/A   Clear
9:15 PM 33.8 °F 28.6 °F 12.2 °F 41% 30.18 in 10.0 mi NNW 5.8 mph - N/A   Clear
9:35 PM 33.8 °F 27.7 °F 12.2 °F 41% 30.18 in 10.0 mi North 6.9 mph - N/A   Clear
9:55 PM 33.8 °F - 14.0 °F 44% 30.18 in 10.0 mi Calm Calm - N/A   Clear
10:15 PM 32.0 °F 25.6 °F 14.0 °F 48% 30.18 in 10.0 mi WNW 6.9 mph - N/A   Clear
10:35 PM 32.0 °F 27.5 °F 14.0 °F 48% 30.19 in 10.0 mi WNW 4.6 mph - N/A   Clear
10:55 PM 32.0 °F 28.7 °F 14.0 °F 48% 30.18 in 10.0 mi West 3.5 mph - N/A   Clear
11:15 PM 32.0 °F 28.7 °F 14.0 °F 48% 30.18 in 10.0 mi North 3.5 mph - N/A   Clear
11:35 PM 32.0 °F 26.4 °F 15.8 °F 51% 30.19 in 10.0 mi North 5.8 mph - N/A   Clear
11:55 PM 32.0 °F 26.4 °F 15.8 °F 51% 30.18 in 10.0 mi North 5.8 mph - N/A   Clear